Volver al catálogo

COSMOS 1827

ActivoNavegaciónPO
NORAD 17582·PAYLOAD·🇷🇺 Russia

Lanzado Mar 13, 1987 desde Plesetsk Cosmodrome

Loading…

Próximos Pases (próximas 24 horas)

TLE

ActualizadoSource: Space-Track

Época: Sep 14, 2026, 22:34 UTC

1 17582U 87026A   26257.94094165  .00000035  00000-0  13087-3 0  9996
2 17582  82.5698 134.4813 0011695 316.4250  43.5919 12.65019730823996

Sigue COSMOS 1827 en tiempo real con AllMySat

Download on the App Store